Location: Schommer Observatory
(40.5200°N, 74.4500°W)
Time: 05:58:55
(UTC-05:00)

Tiangong 1 - Visible Passes

Search period start: 20 January 2018 00:00
Search period end: 30 January 2018 00:00
Orbit: 262 x 287 km, 42.8° (Epoch: 20 January)

Date Brightness Start Highest point End Pass type
(mag) Time Alt. Az. Time Alt. Az. Time Alt. Az.
20 Jan 0.6 17:58:21 10° WNW 18:00:48 54° N 18:02:01 24° ENE visible
21 Jan 0.3 17:57:51 10° WNW 18:00:20 72° NNE 18:01:47 21° E visible
22 Jan 0.5 17:57:14 10° WNW 17:59:42 75° SSW 18:01:34 16° ESE visible
23 Jan 1.4 17:56:31 10° W 17:58:55 44° SSW 18:01:17 10° SE visible
24 Jan 2.6 17:55:47 10° W 17:57:57 26° SSW 18:00:04 10° SSE visible
25 Jan 3.5 17:55:12 10° WSW 17:56:47 15° SSW 17:58:22 10° S visible
